Location: ????????
(55.7667°N, 37.4833°E)
Time: 08:02:50
(UTC+00:00)

USA 59 Rocket - Pass Details

Date: 19 May 2025
Orbit: 373 x 1695 km, 63.3° (Epoch: 23 June)

Event Time Altitude Azimuth Distance (km) Brightness Sun altitude
Exits shadow 22:10:56 - 256° (WSW) 1,747 2.1 -13.7°
Reaches altitude 10° 22:11:42 10° 260° (W) 1,426 1.7 -13.7°
Maximum altitude 22:14:35 39° 332° (NNW) 578 0.4 -13.6°
Drops below altitude 10° 22:17:26 10° 45° (NE) 1,415 2.8 -13.5°
Sets 22:19:36 0° 53° (NE) 2,334 3.9 -13.4°
